This demonstration page uses our WeatherBlox Daily Observations layout. Learn more.

Left ArrowRight Arrow

Hourly Observations for December 21, 2017

Temp ( °F °C ) Dew Point ( °F °C ) Humidity (%) Winds ( mph kmh ) Pressure ( in mb ) Visibility ( mi km ) Precip ( " mm )
12:53 am 00:53 Clear 51 10.6 28 -2.2 41 41 SW 13 20 29.81 1010 10 16 0.00 0.00
1:53 am 01:53 Clear 48 8.9 28 -2.2 46 46 SW 9 15 29.80 1009 10 16 0.00 0.00
2:53 am 02:53 Clear 43 6.1 28 -2.2 56 56 WSW 7 11 29.80 1009 10 16 0.00 0.00
3:53 am 03:53 Clear 44 6.7 30 -1.1 58 58 S 8 13 29.79 1009 10 16 0.00 0.00
4:53 am 04:53 Clear 43 6.1 30 -1.1 60 60 WSW 6 9 29.76 1008 10 16 0.00 0.00
5:53 am 05:53 Clear 37 2.8 29 -1.7 73 73 S 3 6 29.79 1009 10 16 0.00 0.00
6:53 am 06:53 Clear 40 4.4 31 -0.6 70 70 S 9 15 29.78 1009 10 16 0.00 0.00
7:53 am 07:53 Sunny 39 3.9 30 -1.1 70 70 SE 10 17 29.80 1009 10 16 0.00 0.00
8:53 am 08:53 Sunny 46 7.8 31 -0.6 56 56 ESE 3 6 29.80 1009 10 16 0.00 0.00
9:53 am 09:53 Sunny 59 15 30 -1.1 33 33 SSW 6 9 29.79 1009 10 16 0.00 0.00
10:53 am 10:53 Sunny 67 19.4 27 -2.8 22 22 SSW 9 15 29.78 1008 10 16 0.00 0.00
11:53 am 11:53 Sunny 71 21.7 24 -4.4 17 17 SSW 13 20 29.76 1008 10 16 0.00 0.00
12:53 pm 12:53 Sunny 77 25 17 -8.3 10 10 SW 16 26 29.72 1006 10 16 0.00 0.00
1:53 pm 13:53 Sunny 78 25.6 11 -11.7 8 8 WSW 22 35 29.68 1005 10 16 0.00 0.00
2:53 pm 14:53 Sunny 79 26.1 9 -12.8 7 7 WSW 21 33 29.68 1005 10 16 0.00 0.00
3:53 pm 15:53 Sunny 75 23.9 9 -12.8 8 8 SW 15 24 29.67 1005 10 16 0.00 0.00
4:53 pm 16:53 Sunny 73 22.8 8 -13.3 8 8 SW 15 24 29.68 1005 10 16 0.00 0.00
5:53 pm 17:53 Sunny 69 20.6 11 -11.7 10 10 SW 10 17 29.71 1006 10 16 0.00 0.00
6:53 pm 18:53 Clear 63 17.2 13 -10.6 14 14 WSW 8 13 29.71 1006 10 16 0.00 0.00
7:53 pm 19:53 Clear 64 17.8 13 -10.6 13 13 SSW 8 13 29.72 1006 10 16 0.00 0.00
8:53 pm 20:53 Clear 56 13.3 19 -7.2 24 24 Calm 29.73 1007 10 16 0.00 0.00
9:53 pm 21:53 Clear 57 13.9 18 -7.8 22 22 ESE 6 9 29.71 1006 10 16 0.00 0.00
10:53 pm 22:53 Clear 54 12.2 24 -4.4 31 31 ENE 5 7 29.72 1006 10 16 0.00 0.00
11:53 pm 23:53 Clear 55 12.8 31 -0.6 40 40 ESE 10 17 29.71 1006 10 16 0.00 0.00

Powered by AerisWeather